Regional Weather Roundup
Issued by NWS

Home | Current Version | Previous Version | Text Only | Print | Product List | Glossary Off
Versions: 1 2 3 4 5 6 7 8 9 10 11 12 13 14 15 16 17 18 19 20 21 22 23 24 25 26 27 28 29 30 31 32 33 34 35 36 37 38 39 40 41 42 43 44 45 46 47 48 49 50

000
ASUS43 KLMK 271602
RWRKY
KENTUCKY REGIONAL WEATHER ROUNDUP
NATIONAL WEATHER SERVICE LOUISVILLE KY
1200 PM EDT WED JUL 27 2016

NOTE "FAIR" INDICATES FEW OR NO CLOUDS BELOW 12,000 FEET
WITH NO SIGNIFICANT WEATHER AND/OR OBSTRUCTIONS TO VISIBILITY.

KYZ001>023-026-027-061>063-070>075-271700-
WESTERN AND SOUTH CENTRAL KENTUCKY

CITY           SKY/WX    TMP DP  RH WIND       PRES   REMARKS
PADUCAH        PTSUNNY   89  76  65 E5        29.98S HX 100
HENDERSON      PTSUNNY   86  77  74 CALM      29.98S HX  97
OWENSBORO      CLOUDY    87  73  62 CALM      30.00S HX  94
HOPKINSVILLE   SUNNY     87  75  67 VRB1      30.00S HX  95
BOWLING GREEN  CLOUDY    87  71  58 CALM      30.01S HX  93
GLASGOW        NOT AVBL
$$

KYZ024-025-028>034-038-045-046-053-271700-
NORTH CENTRAL KENTUCKY

CITY           SKY/WX    TMP DP  RH WIND       PRES   REMARKS
LOUISVILLE/SDF PTSUNNY   87  73  62 W3        29.99F HX  94
LOUISVILLE/LOU PTSUNNY   87  72  60 CALM      30.00F HX  93
FORT KNOX      LGT RAIN  83  76  78 SW7       30.00S HX  92
$$

KYZ035>037-039>044-047>052-055>060-089>105-271700-
NORTHEAST KENTUCKY

CITY           SKY/WX    TMP DP  RH WIND       PRES   REMARKS
LEXINGTON      PTSUNNY   86  75  69 W6        30.03F HX  95
COVINGTON      CLOUDY    82  73  74 W3        30.03S
FRANKFORT      PTSUNNY   86  74  67 CALM      30.01F HX  94
$$

KYZ054-064>069-076>088-106>120-271700-
SOUTHEAST KENTUCKY

CITY           SKY/WX    TMP DP  RH WIND       PRES   REMARKS
JACKSON        CLOUDY    86  75  69 CALM      30.06R HX  95
LONDON         MOSUNNY   87  69  54 W5        30.05S HX  91
SOMERSET       MOSUNNY   82  72  69 CALM      30.05F
MIDDLESBORO    CLOUDY    88  74  62 CALM      30.06S HX  97
MONTICELLO     SUNNY    N/A N/A N/A VRB7      30.06F
$$





USA.gov is the U.S. government's official web portal to all federal, state and local government web resources and services.